Location: Stonelick Lake State Park
(39.2170°N, 84.0850°W)
Time: 13:22:43
(UTC-04:00)

Amateur Radio Satellites - All Passes

Search period start: 24 April 2014 12:52
Search period end: 25 April 2014 12:52
Location: Stonelick Lake State Park, 39.2170°N, 84.0850°W

Satellite Date Start Highest point End Downlink Frequencies (MHz)
Time Altitude Azimuth
FUNcube-1 24 Apr 12:54:21 12:58:13 33° 289° (WNW) 13:02:10 145.950 - 145.970 MHz USB
Oscar 19 24 Apr 13:16:00 13:19:31 19° 64° (ENE) 13:23:04 437.125 CW, 437.150 USB
KITSAT 1 24 Apr 13:16:29 13:23:43 38° 252° (WSW) 13:30:55 435.175 FM
ISS 24 Apr 13:21:25 13:24:01 22° 132° (SE) 13:26:38 145.800 FM
Oscar 16 24 Apr 13:24:36 13:28:40 24° 66° (ENE) 13:32:47 437.025 USB, Beacon 2401.1428
ITAMSAT 1 24 Apr 13:25:16 13:27:13 12° 60° (ENE) 13:29:09 435.822 SSB
SO-50 24 Apr 14:04:49 14:07:53 18° 110° (ESE) 14:10:57 436.795 FM
Uribyol 2 24 Apr 14:09:10 14:13:45 33° 68° (ENE) 14:18:20 436.500 FM
AO-Echo 24 Apr 14:13:29 14:17:49 28° 68° (ENE) 14:22:03 ?
RS-15 24 Apr 14:20:54 14:30:34 34° 38° (NE) 14:40:19 29.354 - 29.394 USB, Beacon 29.352 USB
AO-27 24 Apr 14:51:32 14:56:43 81° 75° (ENE) 15:01:55 436.795 MHz FM
Oscar 19 24 Apr 14:53:26 14:58:26 52° 260° (W) 15:03:30 437.125 CW, 437.150 USB
ISS 24 Apr 14:57:25 15:00:34 39° 328° (NNW) 15:03:44 145.800 FM
ITAMSAT 1 24 Apr 15:00:47 15:05:58 84° 257° (WSW) 15:11:10 435.822 SSB
Oscar 16 24 Apr 15:03:00 15:07:47 39° 262° (W) 15:12:37 437.025 USB, Beacon 2401.1428
JAS-1B 24 Apr 15:05:58 15:10:52 20° 63° (ENE) 15:15:17 435.800 - 435.900 CW/SSB
Gurwin Techsat 1B 24 Apr 15:15:02 15:19:59 41° 70° (ENE) 15:24:56 435.225 FM
AO-7 24 Apr 15:39:00 15:45:22 26° 56° (NE) 15:51:44 29.400 - 29.500 MHz
SO-50 24 Apr 15:43:48 15:48:05 45° 306° (NW) 15:52:25 436.795 FM
OPAL 24 Apr 15:48:16 15:52:51 30° 98° (E) 15:57:22 ?
Uribyol 2 24 Apr 15:48:50 15:53:12 28° 264° (W) 15:57:37 436.500 FM
AO-Echo 24 Apr 15:51:45 15:56:26 34° 263° (W) 16:01:02 ?
UOSAT-12 24 Apr 15:57:42 16:00:03 14° 108° (ESE) 16:02:25 437.025 FM, 437.400 FM
TMSAT-1 24 Apr 15:59:17 16:04:33 77° 75° (ENE) 16:09:51 436.925 FM
Uosat F 24 Apr 16:14:56 16:19:34 39° 70° (ENE) 16:24:12 435.120 FM
RS-15 24 Apr 16:33:05 16:44:01 78° 243° (WSW) 16:55:18 29.354 - 29.394 USB, Beacon 29.352 USB
AO-27 24 Apr 16:35:38 16:36:49 11° 271° (W) 16:37:59 436.795 MHz FM
ISS 24 Apr 16:36:31 16:38:01 12° 347° (NNW) 16:39:30 145.800 FM
JAS-1B 24 Apr 16:53:11 17:01:03 74° 256° (WSW) 17:07:38 435.800 - 435.900 CW/SSB
Gurwin Techsat 1B 24 Apr 16:55:54 17:00:04 23° 266° (W) 17:04:16 435.225 FM
OPAL 24 Apr 17:27:03 17:31:40 33° 294° (WNW) 17:36:15 ?
AO-7 24 Apr 17:29:07 17:37:22 74° 254° (WSW) 17:45:41 29.400 - 29.500 MHz
UOSAT-12 24 Apr 17:35:09 17:39:39 60° 304° (NW) 17:44:15 437.025 FM, 437.400 FM
TMSAT-1 24 Apr 17:43:03 17:45:01 12° 271° (W) 17:47:00 436.925 FM
Uosat F 24 Apr 17:54:31 17:58:27 23° 265° (W) 18:02:23 435.120 FM
ISS 24 Apr 18:15:04 18:15:56 11° 8° (N) 18:16:48 145.800 FM
Hamsat 24 Apr 18:36:16 18:40:12 40° 72° (ENE) 18:44:12 145.90 MHz
Saudisat 1A 24 Apr 18:45:09 18:49:01 29° 50° (NE) 18:52:50 436.775 MHz
RS-15 24 Apr 18:48:39 18:54:31 16° 262° (W) 19:00:30 29.354 - 29.394 USB, Beacon 29.352 USB
JAS-1B 24 Apr 18:51:48 18:52:15 10° 270° (W) 18:52:42 435.800 - 435.900 CW/SSB
JAS-2 24 Apr 19:20:50 19:26:07 44° 71° (ENE) 19:31:04 435.800 - 435.900 CW/SSB, 435.910 FM
SO-67 24 Apr 19:25:20 19:28:03 22° 71° (ENE) 19:30:47 435.3500 MHz FM
AO-7 24 Apr 19:28:34 19:31:25 12° 272° (W) 19:34:17 29.400 - 29.500 MHz
HO-68 24 Apr 19:48:11 19:49:22 10° 50° (NE) 19:50:33 435.675 MHz FM
ISS 24 Apr 19:50:41 19:53:34 26° 28° (NNE) 19:56:27 145.800 FM
Hamsat 24 Apr 20:13:47 20:16:22 16° 268° (W) 20:18:59 145.90 MHz
STRAND 1 24 Apr 20:13:56 20:19:01 67° 102° (ESE) 20:24:05 ?
Saudisat 1A 24 Apr 20:24:45 20:28:34 29° 247° (WSW) 20:32:20 436.775 MHz
MaSat-1 24 Apr 20:54:49 20:57:32 41° 113° (ESE) 20:59:59 437.345 MHz
SO-67 24 Apr 20:58:34 21:01:08 19° 266° (W) 21:03:42 435.3500 MHz FM
JAS-2 24 Apr 21:07:13 21:11:24 21° 265° (W) 21:15:23 435.800 - 435.900 CW/SSB, 435.910 FM
ISS 24 Apr 21:27:12 21:30:22 39° 224° (SW) 21:33:30 145.800 FM
HO-68 24 Apr 21:28:38 21:35:34 58° 69° (ENE) 21:42:34 435.675 MHz FM
STRAND 1 24 Apr 21:54:53 21:57:37 15° 298° (WNW) 22:00:22 ?
Oscar 11 24 Apr 22:06:19 22:10:17 37° 72° (ENE) 22:14:17 145.825 FM, Beacon 2401.500 USB
FUNcube-1 24 Apr 22:15:31 22:17:46 14° 65° (ENE) 22:20:01 145.950 - 145.970 MHz USB
SO-50 24 Apr 22:36:46 22:39:45 17° 43° (NE) 22:42:44 436.795 FM
HO-68 24 Apr 23:17:58 23:23:37 25° 266° (W) 23:29:20 435.675 MHz FM
Sapphire 24 Apr 23:33:18 23:38:04 33° 109° (ESE) 23:42:52 437.095 MHz 1200 baud AX-25 AFSK
Oscar 11 24 Apr 23:43:43 23:46:37 18° 267° (W) 23:49:31 145.825 FM, Beacon 2401.500 USB
FUNcube-1 24 Apr 23:49:49 23:53:49 45° 261° (W) 23:57:49 145.950 - 145.970 MHz USB
SO-50 25 Apr 00:16:08 00:20:47 70° 241° (WSW) 00:25:29 436.795 FM
PCSat 25 Apr 00:16:50 00:22:14 86° 117° (ESE) 00:27:41 145.825 MHz
UOSAT-12 25 Apr 00:27:17 00:29:34 13° 40° (NE) 00:31:50 437.025 FM, 437.400 FM
Sapphire 25 Apr 01:16:32 01:21:25 34° 307° (NW) 01:26:21 437.095 MHz 1200 baud AX-25 AFSK
KITSAT 1 25 Apr 01:48:05 01:55:21 38° 108° (ESE) 02:02:37 435.175 FM
PCSat 25 Apr 02:03:08 02:06:22 16° 316° (NW) 02:09:37 145.825 MHz
UOSAT-12 25 Apr 02:05:42 02:10:27 85° 59° (ENE) 02:15:08 437.025 FM, 437.400 FM
Uribyol 2 25 Apr 02:24:47 02:26:52 12° 90° (E) 02:28:56 436.500 FM
OPAL 25 Apr 03:02:03 03:06:53 47° 69° (ENE) 03:11:47 ?
Oscar 19 25 Apr 03:05:59 03:11:09 61° 101° (E) 03:16:16 437.125 CW, 437.150 USB
AO-27 25 Apr 03:06:06 03:10:41 31° 97° (E) 03:15:16 436.795 MHz FM
ITAMSAT 1 25 Apr 03:15:02 03:19:50 38° 98° (E) 03:24:37 435.822 SSB
Oscar 16 25 Apr 03:15:19 03:20:33 81° 103° (ESE) 03:25:45 437.025 USB, Beacon 2401.1428
Gurwin Techsat 1B 25 Apr 03:33:17 03:36:49 18° 92° (E) 03:40:21 435.225 FM
KITSAT 1 25 Apr 03:42:43 03:50:31 49° 307° (NW) 03:58:23 435.175 FM
AO-Echo 25 Apr 03:59:41 04:04:26 86° 103° (ESE) 04:09:07 ?
Uribyol 2 25 Apr 04:01:39 04:06:50 73° 286° (WNW) 04:12:00 436.500 FM
TMSAT-1 25 Apr 04:16:37 04:21:22 33° 97° (E) 04:26:06 436.925 FM
Uosat F 25 Apr 04:25:40 04:27:43 12° 91° (E) 04:29:46 435.120 FM
JAS-1B 25 Apr 04:39:19 04:44:10 28° 97° (E) 04:49:21 435.800 - 435.900 CW/SSB
OPAL 25 Apr 04:42:24 04:45:59 19° 265° (W) 04:49:38 ?
AO-27 25 Apr 04:45:39 04:50:07 30° 293° (WNW) 04:54:34 436.795 MHz FM
Oscar 19 25 Apr 04:46:46 04:49:58 17° 297° (WNW) 04:53:09 437.125 CW, 437.150 USB
RS-15 25 Apr 04:48:34 04:54:48 17° 99° (E) 05:00:54 29.354 - 29.394 USB, Beacon 29.352 USB
ITAMSAT 1 25 Apr 04:54:57 04:59:08 25° 294° (WNW) 05:03:18 435.822 SSB
Oscar 16 25 Apr 04:56:59 04:59:11 13° 300° (WNW) 05:01:24 437.025 USB, Beacon 2401.1428
Gurwin Techsat 1B 25 Apr 05:11:56 05:17:06 53° 288° (WNW) 05:22:14 435.225 FM
AO-7 25 Apr 05:32:04 05:39:51 42° 100° (E) 05:47:35 29.400 - 29.500 MHz
KITSAT 1 25 Apr 05:44:02 05:48:11 15° 332° (NNW) 05:52:21 435.175 FM
STRAND 1 25 Apr 05:54:35 05:55:32 11° 59° (ENE) 05:56:29 ?
TMSAT-1 25 Apr 05:56:39 06:01:11 30° 293° (WNW) 06:05:42 436.925 FM
Uosat F 25 Apr 06:01:59 06:06:58 69° 286° (WNW) 06:11:55 435.120 FM
JAS-1B 25 Apr 06:29:46 06:34:56 37° 291° (WNW) 06:40:27 435.800 - 435.900 CW/SSB
RS-15 25 Apr 06:54:00 07:05:21 79° 117° (ESE) 07:16:20 29.354 - 29.394 USB, Beacon 29.352 USB
MaSat-1 25 Apr 06:55:49 06:58:59 64° 247° (WSW) 07:02:48 437.345 MHz
AO-40 25 Apr 07:13:04 09:50:37 21° 128° (SE) 11:08:34 Beacon 2401.320
AO-7 25 Apr 07:24:53 07:32:35 44° 297° (WNW) 07:40:17 29.400 - 29.500 MHz
STRAND 1 25 Apr 07:28:48 07:33:55 87° 76° (ENE) 07:39:03 ?
PANSAT 25 Apr 07:49:28 07:51:55 16° 176° (S) 07:54:23 not established
Hamsat 25 Apr 07:58:41 08:03:04 83° 283° (WNW) 08:07:26 145.90 MHz
JAS-2 25 Apr 08:14:04 08:19:28 44° 100° (E) 08:25:29 435.800 - 435.900 CW/SSB, 435.910 FM
Sapphire 25 Apr 08:22:15 08:26:34 24° 49° (NE) 08:30:52 437.095 MHz 1200 baud AX-25 AFSK
SO-67 25 Apr 08:23:19 08:26:26 29° 97° (E) 08:29:31 435.3500 MHz FM
PCSat 25 Apr 09:05:57 09:11:17 54° 58° (ENE) 09:16:34 145.825 MHz
RS-15 25 Apr 09:09:05 09:18:51 33° 322° (NW) 09:28:29 29.354 - 29.394 USB, Beacon 29.352 USB
PANSAT 25 Apr 09:29:18 09:31:29 15° 189° (S) 09:33:40 not established
KITSAT 1 25 Apr 09:42:21 09:47:50 19° 35° (NE) 09:53:16 435.175 FM
SO-67 25 Apr 09:57:20 09:59:18 15° 292° (WNW) 10:01:16 435.3500 MHz FM
JAS-2 25 Apr 09:59:51 10:04:22 26° 293° (WNW) 10:09:17 435.800 - 435.900 CW/SSB, 435.910 FM
Sapphire 25 Apr 10:05:02 10:10:17 52° 247° (WSW) 10:15:30 437.095 MHz 1200 baud AX-25 AFSK
Saudisat 1A 25 Apr 10:29:30 10:33:58 89° 299° (WNW) 10:38:28 436.775 MHz
HO-68 25 Apr 10:44:46 10:51:56 67° 103° (ESE) 10:59:04 435.675 MHz FM
PCSat 25 Apr 10:50:26 10:54:14 20° 255° (WSW) 10:58:01 145.825 MHz
RS-15 25 Apr 11:29:32 11:36:06 17° 356° (N) 11:42:39 29.354 - 29.394 USB, Beacon 29.352 USB
Oscar 11 25 Apr 11:30:43 11:35:07 90° 284° (WNW) 11:39:29 145.825 FM, Beacon 2401.500 USB
KITSAT 1 25 Apr 11:36:43 11:44:49 70° 58° (ENE) 11:52:51 435.175 FM
FUNcube-1 25 Apr 11:39:50 11:43:49 35° 98° (E) 11:47:52 145.950 - 145.970 MHz USB
Saudisat 1A 25 Apr 12:12:16 12:14:14 13° 320° (NW) 12:16:12 436.775 MHz
HO-68 25 Apr 12:33:34 12:39:01 24° 301° (WNW) 12:44:28 435.675 MHz FM
ISS 25 Apr 12:34:03 12:35:24 12° 128° (SE) 12:36:44 145.800 FM
